Portada
METAR-TAF:

METAR-TAF

Aeroports :

Door County Cherryland Airport

Sturgeon Bay, Wisconsin, Estats Units d'Amèrica

latitud: 44-51N, longitud: 087-25W, altitud: 221 m

Observació

L'informe es va fer fa 12 minuts, a les 14:56 UTC
Vent 10 kt del Sud/Sud-Est
Temperatura 16°C
Humitat 82%
Pressió 1021 hPa
Visibilitat: 16.1 km
Núvols disperses a una alçada de 1400 ft
Cel cobert a una alçada de 2000 ft

METAR: KSUE 241456Z AUTO 16010KT 10SM SCT014 OVC020 16/13 A3016 RMK AO2 SLP233 T01610128 58008

Hora: 10:08 (15:08 UTC)


TAF: manca

Observacions i pronòstics meteorològics de més de 4000 aeroports (METAR i TAF).

Les estacions disponibles són els punts grocs i vermells al mapa.

Posi el ratolí al punt desitjat per veure el nom de l'estació.

Feu clic per veure les observacions i els pronòstics meteorològics.

Per canviar el mapa: feu clic els botons verds amb una creu de color negre per apropar; al botó verd amb un guió per allunyar la imatge; o en les fletxes verdes per a mapes adjacents.


METAR-TAF: